MST,Max TemperatureF,Mean TemperatureF,Min TemperatureF,Max Dew PointF,MeanDew PointF,Min DewpointF,Max Humidity, Mean Humidity, Min Humidity, Max Sea Level PressureIn, Mean Sea Level PressureIn, Min Sea Level PressureIn, Max VisibilityMiles, Mean VisibilityMiles, Min VisibilityMiles, Max Wind SpeedMPH, Mean Wind SpeedMPH, Max Gust SpeedMPH,PrecipitationIn, CloudCover, Events, WindDirDegrees
2012-10-1,79,56,34,27,23,20,61,32,12,30.18,30.13,30.07,10,10,10,13,4,16,0.00,0,,55
2012-10-2,79,56,32,26,20,14,61,33,9,30.17,30.04,29.97,10,10,9,10,2,18,0.00,0,,274
2012-10-3,81,57,33,25,20,17,56,29,9,30.14,30.03,29.99,10,10,10,17,4,28,0.00,0,,235
2012-10-4,75,52,28,29,21,13,61,30,12,30.15,30.06,29.99,10,10,10,21,7,37,0.00,0,,235
2012-10-5,73,52,32,26,22,18,59,31,14,30.13,30.03,29.96,10,10,10,16,4,29,0.00,0,,234
2012-10-6,72,51,30,29,22,16,64,36,17,30.05,29.97,29.89,10,10,10,10,2,17,0.00,0,,292
2012-10-7,71,50,28,23,17,10,67,36,13,30.09,30.01,29.96,10,10,10,10,2,24,0.00,0,,209
2012-10-8,71,50,28,31,22,13,58,38,18,30.13,30.02,29.95,10,10,10,15,3,23,0.00,0,,220
2012-10-9,72,51,30,39,28,20,72,45,18,30.09,30.02,29.97,10,10,10,15,3,26,0.00,1,,217
2012-10-10,70,50,30,36,29,23,76,50,24,30.11,30.02,29.94,10,10,10,16,2,23,0.00,1,,176
2012-10-11,62,46,30,48,36,22,86,67,39,30.04,29.95,29.88,10,10,5,10,3,21,0.09,4,Rain,140
2012-10-12,48,40,30,41,36,29,100,86,68,30.16,30.04,29.83,10,8,2,23,10,34,0.21,6,Rain,208
2012-10-13,61,44,28,40,35,27,100,76,39,30.26,30.18,30.12,10,10,9,8,2,,0.00,2,,274
2012-10-14,66,49,32,38,35,29,92,62,34,30.30,30.22,30.14,10,10,10,17,6,24,0.00,0,,62
2012-10-15,71,49,27,38,27,17,92,55,13,30.25,30.12,30.00,10,10,10,9,2,,0.00,0,,281
2012-10-16,72,50,28,33,24,13,88,47,11,30.12,29.97,29.86,10,10,10,10,2,20,0.00,0,,263
2012-10-17,72,50,28,33,17,-4,85,42,5,30.14,30.01,29.93,10,10,10,10,3,21,0.00,0,,11
2012-10-18,72,48,25,21,14,6,75,37,8,30.26,30.15,30.09,10,10,10,7,1,,0.00,0,,135
2012-10-19,73,50,26,22,14,7,66,35,8,30.23,30.07,29.97,10,10,10,8,2,,0.00,0,,12
2012-10-20,71,47,23,25,19,15,72,40,12,30.06,29.92,29.83,10,10,9,15,4,25,0.00,0,,227
2012-10-21,66,48,30,38,31,20,79,51,28,30.05,29.87,29.82,10,10,10,24,7,29,0.00,2,,210
2012-10-22,64,55,46,45,41,30,93,72,28,30.04,29.91,29.79,10,10,9,24,11,36,0.00,4,,214
2012-10-23,63,53,43,43,36,26,90,60,25,30.03,29.86,29.76,10,10,9,24,13,36,0.00,2,,215
2012-10-24,59,42,23,36,18,8,89,43,14,30.06,29.88,29.78,10,10,10,24,9,39,0.00,0,,226
2012-10-25,53,35,17,14,11,8,68,41,20,30.26,30.16,30.08,10,10,10,16,3,30,0.00,0,,326
2012-10-26,48,33,18,12,3,-3,65,33,13,30.34,30.26,30.20,10,10,10,21,6,32,0.00,0,,59
2012-10-27,64,40,17,10,5,0,48,27,10,30.25,30.16,30.07,10,10,10,10,3,,0.00,0,,49
2012-10-28,68,44,21,11,6,0,53,29,7,30.26,30.16,30.08,10,10,10,8,3,24,0.00,0,,36
2012-10-29,68,44,19,12,7,5,55,30,9,30.34,30.23,30.17,10,10,10,12,2,17,0.00,0,,273
2012-10-30,69,45,21,16,6,-4,57,30,6,30.33,30.20,30.12,10,10,10,9,2,,0.00,0,,202
2012-10-31,70,46,23,18,10,4,55,31,8,30.28,30.15,30.07,10,10,10,9,3,16,0.00,0,,118